Time,TemperatureF,DewpointF,PressureIn,WindDirection,WindDirectionDegrees,WindSpeedMPH,WindSpeedGustMPH,Humidity,HourlyPrecipIn,Conditions,Clouds,dailyrainin,SoftwareType,DateUTC
2013-02-17 00:03:00,-7.9,-15.0,30.17,WNW,292,0.0,-999.0,71,-99.99,,,0.00,weatherlink.com 1.10,2013-02-17 06:03:00,
2013-02-17 00:18:00,-8.4,-15.0,30.17,WNW,292,0.0,-999.0,71,-99.99,,,0.00,weatherlink.com 1.10,2013-02-17 06:18:00,
2013-02-17 00:33:00,-8.9,-16.0,30.17,WNW,292,0.0,-999.0,71,-99.99,,,0.00,weatherlink.com 1.10,2013-02-17 06:33:00,
2013-02-17 00:48:00,-9.1,-16.0,30.16,WNW,292,0.0,-999.0,71,-99.99,,,0.00,weatherlink.com 1.10,2013-02-17 06:48:00,
2013-02-17 01:03:00,-9.6,-17.0,30.17,WNW,292,0.0,-999.0,71,-99.99,,,0.00,weatherlink.com 1.10,2013-02-17 07:03:00,
2013-02-17 01:18:00,-9.8,-17.0,30.16,WNW,292,0.0,-999.0,71,-99.99,,,0.00,weatherlink.com 1.10,2013-02-17 07:18:00,
2013-02-17 01:33:00,-10.3,-17.0,30.16,WNW,292,0.0,-999.0,71,-99.99,,,0.00,weatherlink.com 1.10,2013-02-17 07:33:00,
2013-02-17 01:48:00,-10.5,-17.0,30.16,WNW,292,0.0,-999.0,71,-99.99,,,0.00,weatherlink.com 1.10,2013-02-17 07:48:00,
2013-02-17 02:03:00,-10.7,-18.0,30.16,WNW,292,0.0,-999.0,71,-99.99,,,0.00,weatherlink.com 1.10,2013-02-17 08:03:00,
2013-02-17 02:18:00,-11.0,-18.0,30.16,WNW,292,0.0,-999.0,72,-99.99,,,0.00,weatherlink.com 1.10,2013-02-17 08:18:00,
2013-02-17 02:34:00,-11.2,-18.0,30.16,WNW,292,0.0,-999.0,72,-99.99,,,0.00,weatherlink.com 1.10,2013-02-17 08:34:00,
2013-02-17 02:49:00,-11.5,-18.0,30.16,WNW,292,0.0,-999.0,71,-99.99,,,0.00,weatherlink.com 1.10,2013-02-17 08:49:00,
2013-02-17 03:04:00,-11.7,-19.0,30.16,WNW,292,0.0,-999.0,71,-99.99,,,0.00,weatherlink.com 1.10,2013-02-17 09:04:00,
2013-02-17 03:20:00,-12.0,-19.0,30.16,WNW,292,0.0,-999.0,71,-99.99,,,0.00,weatherlink.com 1.10,2013-02-17 09:20:00,
2013-02-17 03:34:00,-12.2,-19.0,30.16,WNW,292,0.0,-999.0,71,-99.99,,,0.00,weatherlink.com 1.10,2013-02-17 09:34:00,
2013-02-17 03:49:00,-12.2,-19.0,30.15,WNW,292,0.0,-999.0,71,-99.99,,,0.00,weatherlink.com 1.10,2013-02-17 09:49:00,
2013-02-17 04:04:00,-12.5,-19.0,30.15,WNW,292,0.0,-999.0,71,-99.99,,,0.00,weatherlink.com 1.10,2013-02-17 10:04:00,
2013-02-17 04:19:00,-12.5,-19.0,30.15,WNW,292,0.0,-999.0,72,-99.99,,,0.00,weatherlink.com 1.10,2013-02-17 10:19:00,
2013-02-17 04:34:00,-12.5,-19.0,30.15,WNW,292,0.0,-999.0,72,-99.99,,,0.00,weatherlink.com 1.10,2013-02-17 10:34:00,
2013-02-17 04:49:00,-12.5,-19.0,30.14,WNW,292,0.0,-999.0,72,-99.99,,,0.00,weatherlink.com 1.10,2013-02-17 10:49:00,
2013-02-17 05:04:00,-12.8,-19.0,30.14,WNW,292,0.0,-999.0,72,-99.99,,,0.00,weatherlink.com 1.10,2013-02-17 11:04:00,
2013-02-17 05:20:00,-12.8,-19.0,30.15,WNW,292,0.0,-999.0,72,-99.99,,,0.00,weatherlink.com 1.10,2013-02-17 11:20:00,
2013-02-17 05:35:00,-12.8,-19.0,30.15,WNW,292,0.0,-999.0,72,-99.99,,,0.00,weatherlink.com 1.10,2013-02-17 11:35:00,
2013-02-17 05:50:00,-12.8,-19.0,30.15,WNW,292,0.0,-999.0,72,-99.99,,,0.00,weatherlink.com 1.10,2013-02-17 11:50:00,
2013-02-17 06:05:00,-12.5,-19.0,30.15,WNW,292,0.0,-999.0,73,-99.99,,,0.00,weatherlink.com 1.10,2013-02-17 12:05:00,
2013-02-17 06:20:00,-12.5,-19.0,30.15,WNW,292,0.0,-999.0,73,-99.99,,,0.00,weatherlink.com 1.10,2013-02-17 12:20:00,
2013-02-17 06:35:00,-12.2,-19.0,30.14,WNW,292,0.0,-999.0,73,-99.99,,,0.00,weatherlink.com 1.10,2013-02-17 12:35:00,
2013-02-17 06:50:00,-12.2,-19.0,30.14,WNW,292,0.0,-999.0,73,-99.99,,,0.00,weatherlink.com 1.10,2013-02-17 12:50:00,
2013-02-17 07:05:00,-11.7,-18.0,30.13,WNW,292,0.0,-999.0,73,-99.99,,,0.00,weatherlink.com 1.10,2013-02-17 13:05:00,
2013-02-17 07:21:00,-11.0,-17.0,30.13,WNW,292,0.0,-999.0,74,-99.99,,,0.00,weatherlink.com 1.10,2013-02-17 13:21:00,
2013-02-17 07:36:00,-10.0,-16.0,30.13,WNW,292,0.0,-999.0,76,-99.99,,,0.00,weatherlink.com 1.10,2013-02-17 13:36:00,
2013-02-17 07:51:00,-8.9,-14.0,30.14,WNW,292,0.0,-999.0,77,-99.99,,,0.00,weatherlink.com 1.10,2013-02-17 13:51:00,
2013-02-17 08:06:00,-7.2,-12.0,30.12,WNW,292,0.0,-999.0,78,-99.99,,,0.00,weatherlink.com 1.10,2013-02-17 14:06:00,
2013-02-17 08:21:00,-5.9,-11.0,30.11,WNW,292,0.0,-999.0,79,-99.99,,,0.00,weatherlink.com 1.10,2013-02-17 14:21:00,
2013-02-17 08:37:00,-4.3,-9.0,30.11,WNW,292,0.0,-999.0,80,-99.99,,,0.00,weatherlink.com 1.10,2013-02-17 14:37:00,
2013-02-17 08:52:00,-1.6,-6.0,30.11,WNW,292,0.0,-999.0,83,-99.99,,,0.00,weatherlink.com 1.10,2013-02-17 14:52:00,
2013-02-17 09:07:00,2.6,-1.0,30.09,North,349,0.0,-999.0,86,-99.99,,,0.00,weatherlink.com 1.10,2013-02-17 15:07:00,
2013-02-17 09:21:00,6.7,3.0,30.09,South,185,0.0,-999.0,85,-99.99,,,0.00,weatherlink.com 1.10,2013-02-17 15:21:00,
2013-02-17 09:36:00,10.2,6.0,30.09,SSE,168,2.0,-999.0,83,-99.99,,,0.00,weatherlink.com 1.10,2013-02-17 15:36:00,
2013-02-17 09:51:00,12.8,6.0,30.09,SSW,197,1.0,-999.0,75,-99.99,,,0.00,weatherlink.com 1.10,2013-02-17 15:51:00,
2013-02-17 10:06:00,15.7,5.0,30.08,East,81,2.0,-999.0,64,-99.99,,,0.00,weatherlink.com 1.10,2013-02-17 16:06:00,
2013-02-17 10:21:00,18.1,6.0,30.08,ESE,117,0.0,-999.0,59,-99.99,,,0.00,weatherlink.com 1.10,2013-02-17 16:21:00,
2013-02-17 10:37:00,20.2,6.0,30.07,SW,234,4.0,-999.0,55,-99.99,,,0.00,weatherlink.com 1.10,2013-02-17 16:37:00,
2013-02-17 10:52:00,21.8,7.0,30.06,SW,231,0.0,-999.0,53,-99.99,,,0.00,weatherlink.com 1.10,2013-02-17 16:52:00,
2013-02-17 11:07:00,23.0,8.0,30.06,SE,126,1.0,-999.0,52,-99.99,,,0.00,weatherlink.com 1.10,2013-02-17 17:07:00,
2013-02-17 11:22:00,23.2,7.0,30.05,South,186,4.0,-999.0,51,-99.99,,,0.00,weatherlink.com 1.10,2013-02-17 17:22:00,
2013-02-17 11:37:00,23.5,8.0,30.05,SSE,148,1.0,-999.0,52,-99.99,,,0.00,weatherlink.com 1.10,2013-02-17 17:37:00,
2013-02-17 11:52:00,24.7,9.0,30.04,ENE,74,1.0,-999.0,51,-99.99,,,0.00,weatherlink.com 1.10,2013-02-17 17:52:00,
2013-02-17 12:07:00,25.1,10.0,30.03,SE,125,2.0,-999.0,52,-99.99,,,0.00,weatherlink.com 1.10,2013-02-17 18:07:00,
2013-02-17 12:22:00,26.0,9.0,30.03,SE,135,3.0,-999.0,49,-99.99,,,0.00,weatherlink.com 1.10,2013-02-17 18:22:00,
2013-02-17 12:38:00,26.3,10.0,30.02,SE,126,4.0,-999.0,50,-99.99,,,0.00,weatherlink.com 1.10,2013-02-17 18:38:00,
2013-02-17 12:53:00,26.6,10.0,30.01,SE,134,2.0,-999.0,50,-99.99,,,0.00,weatherlink.com 1.10,2013-02-17 18:53:00,
2013-02-17 13:08:00,26.6,10.0,30.00,ESE,120,2.0,-999.0,50,-99.99,,,0.00,weatherlink.com 1.10,2013-02-17 19:08:00,
2013-02-17 13:23:00,27.2,10.0,29.99,South,181,2.0,-999.0,48,-99.99,,,0.00,weatherlink.com 1.10,2013-02-17 19:23:00,
2013-02-17 13:38:00,27.9,10.0,29.98,SE,142,1.0,-999.0,48,-99.99,,,0.00,weatherlink.com 1.10,2013-02-17 19:38:00,
2013-02-17 13:53:00,28.4,11.0,29.97,South,191,3.0,-999.0,48,-99.99,,,0.01,weatherlink.com 1.10,2013-02-17 19:53:00,
2013-02-17 14:08:00,29.0,11.0,29.96,SE,136,1.0,-999.0,47,-99.99,,,0.01,weatherlink.com 1.10,2013-02-17 20:08:00,
2013-02-17 14:23:00,29.1,12.0,29.95,ESE,119,0.0,-999.0,48,-99.99,,,0.01,weatherlink.com 1.10,2013-02-17 20:23:00,
2013-02-17 14:38:00,29.7,11.0,29.95,East,91,3.0,-999.0,46,-99.99,,,0.01,weatherlink.com 1.10,2013-02-17 20:38:00,
2013-02-17 14:53:00,30.1,12.0,29.94,ESE,119,1.0,-999.0,48,-99.99,,,0.01,weatherlink.com 1.10,2013-02-17 20:53:00,
2013-02-17 15:09:00,30.0,12.0,29.93,SSW,192,1.0,-999.0,48,-99.99,,,0.01,weatherlink.com 1.10,2013-02-17 21:09:00,
2013-02-17 15:24:00,29.1,12.0,29.92,SE,136,3.0,-999.0,49,-99.99,,,0.01,weatherlink.com 1.10,2013-02-17 21:24:00,
2013-02-17 15:39:00,28.4,12.0,29.91,SE,137,4.0,-999.0,51,-99.99,,,0.01,weatherlink.com 1.10,2013-02-17 21:39:00,
2013-02-17 15:54:00,28.4,12.0,29.91,East,94,2.0,-999.0,50,-99.99,,,0.01,weatherlink.com 1.10,2013-02-17 21:54:00,
2013-02-17 16:09:00,27.8,12.0,29.90,SSE,148,2.0,-999.0,51,-99.99,,,0.01,weatherlink.com 1.10,2013-02-17 22:09:00,
2013-02-17 16:25:00,27.5,12.0,29.90,ESE,108,1.0,-999.0,53,-99.99,,,0.01,weatherlink.com 1.10,2013-02-17 22:25:00,
2013-02-17 16:40:00,27.0,12.0,29.90,East,97,2.0,-999.0,54,-99.99,,,0.01,weatherlink.com 1.10,2013-02-17 22:40:00,
2013-02-17 16:55:00,26.7,13.0,29.89,SE,129,1.0,-999.0,56,-99.99,,,0.01,weatherlink.com 1.10,2013-02-17 22:55:00,
2013-02-17 17:09:00,26.4,12.0,29.89,South,190,4.0,-999.0,55,-99.99,,,0.01,weatherlink.com 1.10,2013-02-17 23:09:00,
2013-02-17 17:24:00,26.1,13.0,29.88,ESE,104,0.0,-999.0,57,-99.99,,,0.01,weatherlink.com 1.10,2013-02-17 23:24:00,
2013-02-17 17:39:00,25.8,13.0,29.87,ESE,121,2.0,-999.0,58,-99.99,,,0.01,weatherlink.com 1.10,2013-02-17 23:39:00,
2013-02-17 17:54:00,25.7,13.0,29.86,SE,124,1.0,-999.0,58,-99.99,,,0.01,weatherlink.com 1.10,2013-02-17 23:54:00,
2013-02-17 18:09:00,25.6,13.0,29.86,ESE,120,2.0,-999.0,58,-99.99,,,0.01,weatherlink.com 1.10,2013-02-18 00:09:00,
2013-02-17 18:25:00,25.4,12.0,29.85,SE,129,3.0,-999.0,58,-99.99,,,0.01,weatherlink.com 1.10,2013-02-18 00:25:00,
2013-02-17 18:40:00,25.3,13.0,29.84,SSE,156,1.0,-999.0,59,-99.99,,,0.01,weatherlink.com 1.10,2013-02-18 00:40:00,
2013-02-17 18:55:00,25.1,12.0,29.85,SE,130,1.0,-999.0,59,-99.99,,,0.01,weatherlink.com 1.10,2013-02-18 00:55:00,
2013-02-17 19:10:00,25.0,13.0,29.85,NE,38,2.0,-999.0,60,-99.99,,,0.01,weatherlink.com 1.10,2013-02-18 01:10:00,
2013-02-17 19:25:00,24.7,12.0,29.84,ESE,105,1.0,-999.0,60,-99.99,,,0.01,weatherlink.com 1.10,2013-02-18 01:25:00,
2013-02-17 19:40:00,24.2,12.0,29.83,SE,125,2.0,-999.0,60,-99.99,,,0.01,weatherlink.com 1.10,2013-02-18 01:40:00,
2013-02-17 19:55:00,23.9,12.0,29.84,SE,128,0.0,-999.0,62,-99.99,,,0.01,weatherlink.com 1.10,2013-02-18 01:55:00,
2013-02-17 20:10:00,23.6,12.0,29.83,SE,130,0.0,-999.0,62,-99.99,,,0.01,weatherlink.com 1.10,2013-02-18 02:10:00,
2013-02-17 20:25:00,23.3,12.0,29.81,NNW,347,0.0,-999.0,63,-99.99,,,0.01,weatherlink.com 1.10,2013-02-18 02:25:00,
2013-02-17 20:40:00,23.2,13.0,29.81,SSW,195,5.0,-999.0,64,-99.99,,,0.01,weatherlink.com 1.10,2013-02-18 02:40:00,
2013-02-17 20:55:00,23.0,13.0,29.81,SSE,157,2.0,-999.0,65,-99.99,,,0.01,weatherlink.com 1.10,2013-02-18 02:55:00,
2013-02-17 21:11:00,22.9,13.0,29.81,South,169,0.0,-999.0,65,-99.99,,,0.01,weatherlink.com 1.10,2013-02-18 03:11:00,
2013-02-17 21:26:00,22.7,13.0,29.79,SSE,163,0.0,-999.0,66,-99.99,,,0.01,weatherlink.com 1.10,2013-02-18 03:26:00,
2013-02-17 21:41:00,22.5,13.0,29.79,SE,142,0.0,-999.0,67,-99.99,,,0.01,weatherlink.com 1.10,2013-02-18 03:41:00,
2013-02-17 21:56:00,22.5,13.0,29.78,SE,125,1.0,-999.0,68,-99.99,,,0.01,weatherlink.com 1.10,2013-02-18 03:56:00,
2013-02-17 22:11:00,22.4,13.0,29.78,SSW,194,0.0,-999.0,68,-99.99,,,0.01,weatherlink.com 1.10,2013-02-18 04:11:00,
2013-02-17 22:26:00,22.4,14.0,29.77,South,191,0.0,-999.0,69,-99.99,,,0.01,weatherlink.com 1.10,2013-02-18 04:26:00,
2013-02-17 22:41:00,22.2,14.0,29.76,South,188,0.0,-999.0,70,-99.99,,,0.01,weatherlink.com 1.10,2013-02-18 04:41:00,
2013-02-17 22:57:00,22.2,14.0,29.76,South,188,0.0,-999.0,70,-99.99,,,0.01,weatherlink.com 1.10,2013-02-18 04:57:00,
2013-02-17 23:12:00,21.9,14.0,29.75,South,188,0.0,-999.0,72,-99.99,,,0.01,weatherlink.com 1.10,2013-02-18 05:12:00,
2013-02-17 23:27:00,22.1,14.0,29.74,South,191,1.0,-999.0,72,-99.99,,,0.01,weatherlink.com 1.10,2013-02-18 05:27:00,
2013-02-17 23:42:00,22.1,15.0,29.72,South,191,0.0,-999.0,73,-99.99,,,0.01,weatherlink.com 1.10,2013-02-18 05:42:00,
2013-02-17 23:58:00,22.2,15.0,29.72,South,173,0.0,-999.0,73,-99.99,,,0.01,weatherlink.com 1.10,2013-02-18 05:58:00,